Terminal Aerodrome Forecast
Issued by NWS

Home | Current Version | Previous Version | Text Only | Print | Product List | Glossary On
Versions: 1 2 3 4 5 6 7 8 9 10 11 12 13 14 15 16 17 18 19 20 21 22 23
000
FTAK31 PANC 300259 AAB
TAFAVD
TAF AMD
PAVD 300259Z 3003/3024 VRB03KT 3SM -RASN SCT005 BKN025 OVC060
      TEMPO 3003/3005 1 1/2SM -SN BKN015
     FM300500 VRB03KT 2SM -SN BR SCT005 OVC015
     FM300900 VRB03KT 4SM -SHSN SCT015 BKN025
     FM301500 VRB03KT P6SM VCSH SCT003 SCT045
     FM302200 VRB03KT 2SM -SN SCT010 OVC020=

USA.gov is the U.S. government's official web portal to all federal, state and local government web resources and services.